Location: Grambois
(43.7619°N, 5.5873°E)
Time: 16:50:27
(UTC+00:00)

Cosmos 2154 Rocket - Pass Details

Date: 07 June 2020
Orbit: 966 x 996 km, 82.9° (Epoch: 13 July)

Event Time Altitude Azimuth Distance (km) Brightness Sun altitude
Exits shadow 01:49:51 24° 196° (SSW) 1,887 4.9 -16.8°
Maximum altitude 01:53:47 76° 279° (W) 1,008 4.0 -16.4°
Drops below altitude 10° 02:00:02 10° 5° (N) 2,724 7.3 -15.8°
Sets 02:02:33 0° 7° (N) 3,672 8.2 -15.5°
